Regional Weather Roundup
Issued by NWS

Home | Current Version | Previous Version | Text Only | Print | Product List | Glossary On
Versions: 1 2 3 4 5 6 7 8 9 10 11 12 13 14 15 16 17 18 19 20 21 22 23 24 25 26 27
000
ASUS44 KLIX 231313
RWRLA
LOUISIANA WEATHER ROUNDUP
NATIONAL WEATHER SERVICE NEW ORLEANS LA
800 AM CDT SAT SEP 23 2017

NOTE: "FAIR" INDICATES FEW OR NO CLOUDS BELOW 12,000 FEET WITH NO
      SIGNIFICANT WEATHER AND/OR OBSTRUCTIONS TO VISIBILITY.
      SKY/WX - SKY CONDITION AND SIGNIFICANT WEATHER.
      TMP - AIR TEMPERATURE.    DP   - DEWPOINT TEMPERATURE.
      RH  - RELATIVE HUMIDITY.  PRES - PRESSURE.
      HX  - HEAT INDEX.         WCI  - WIND CHILL INDEX.

*  THESE STATIONS ARE NOT NWS OR FAA STATIONS AND ARE NOT UNDER
   NWS QUALITY CONTROL.

LAZ040-048-061>063-065-066-069-231400-
SOUTHEAST LOUISIANA

CITY           SKY/WX    TMP DP  RH WIND       PRES   REMARKS
N.O. INTL ARPT MOSUNNY   78  77  96 E7        29.95R
N.O. LAKEFRONT NOT AVBL
N.O. DOWNTOWN* NOT AVBL
RESERVE*       FAIR      78  76  93 MISG      29.96R FOG
SLIDELL        NOT AVBL
BATON ROUGE    SUNNY     74  72  93 NE5       29.96R FOG
BOOTHVILLE     SUNNY     81  76  84 E5        29.95R
BELLE CHASSE   NOT AVBL
BOGALUSA*      FAIR      72  69  90 CALM      29.99R
GALLIANO*      SUNNY     76  72  89 CALM      29.94R
NEW ROADS*     FAIR      72  72  98 CALM      29.97R FOG
GONZALES*      FAIR      73  73  97 CALM      29.95R FOG
HAMMOND*       SUNNY     73  70  88 CALM      29.96R
HOUMA*         SUNNY     73  73 100 CALM      29.95R
PORT FOURCHON* MOSUNNY   82  73  74 E9        29.94S

$$

LAZ041-044-053-054-231400-
SOUTHWEST LOUISIANA

CITY           SKY/WX    TMP DP  RH WIND       PRES   REMARKS
LAKE CHARLES   SUNNY     75  73  94 NE3       29.94R FOG
LAFAYETTE      SUNNY     75  73  94 CALM      29.95R
PATTERSON      NOT AVBL
SALT POINT       N/A     75  73  93 CALM      29.93R
NEW IBERIA     SUNNY     73  72  94 CALM      29.95R
CHENAULT AIRPK NOT AVBL

$$

LAZ027-028-231400-
CENTRAL LOUISIANA

CITY           SKY/WX    TMP DP  RH WIND       PRES   REMARKS
FORT POLK      SUNNY     72  70  93 CALM      29.94R
ALEXANDRIA INT SUNNY     72  72 100 CALM      29.93S
ALEXANDRIA     NOT AVBL

$$

LAZ001-002-231400-
NORTHWEST LOUISIANA

CITY           SKY/WX    TMP DP  RH WIND       PRES   REMARKS
SHREVEPORT     MOSUNNY   73  72  96 CALM      29.96R
BARKSDALE AFB  SUNNY     71  71 100 CALM      29.96R
DTN SHREVEPORT SUNNY     74  71  91 CALM      29.96R

$$

LAZ014-016-231400-
NORTHEAST LOUISIANA

CITY           SKY/WX    TMP DP  RH WIND       PRES   REMARKS
MONROE         SUNNY     74  71  91 CALM      29.97R
TALLULAH       SUNNY     73  71  93 CALM      29.98R FOG

$$





USA.gov is the U.S. government's official web portal to all federal, state and local government web resources and services.